Regional Weather Roundup
Issued by NWS Wakefield, VA

Home | Current Version | Previous Version | Text Only | Print | Product List | Glossary Off
Versions: 1 2 3 4 5 6 7 8 9 10 11 12 13 14 15 16 17 18 19 20 21 22 23 24 25 26 27 28

000
ASUS41 KAKQ 280015
RWRAKQ

REGIONAL WEATHER ROUNDUP
NATIONAL WEATHER SERVICE WAKEFIELD VA
800 PM EDT MON MAR 27 2017

Note: "fair" indicates few or no clouds below 12,000 feet with no
significant weather and/or obstructions to visibility. * = Denotes
station may not report precipitation (e.g., rain,snow,etc.),
thunder or fog.

VAZ042-051-052>054-056-280100-
NORTHERN VIRGINIA

CITY           SKY/WX    TMP DP  RH WIND       PRES   REMARKS
WASH NATIONAL  MOCLDY    68  57  68 NE3       29.92R
DULLES         MOCLDY    66  56  70 E5        29.91S
FORT BELVOIR   CLOUDY    71  55  56 VRB3      29.91S
QUANTICO       MOCLDY    61  53  75 SW8       29.92S
FREDERICKSBRG* PTCLDY    73  57  58 S7        29.91S
STAFFORD*      PTCLDY    72  55  55 S5        29.95S
WARRENTON      CLOUDY    73  51  46 S3        29.91R
CULPEPER*      CLOUDY    73  57  56 S3        29.92R
MANASSAS*        N/A    N/A N/A N/A CALM      29.91S
LEESBURG*      MOCLDY    70  59  68 E5        29.92F
WINCHESTER     PTCLDY    63  55  77 CALM      29.92S
FRONT ROYAL*   PTCLDY    63  59  88 CALM      29.90F
LURAY*         PTCLDY    66  55  68 SE5       29.91F
$$

VAZ048-049-060>072-079>083-280100-
CENTRAL AND SOUTH CENTRAL VIRGINIA

CITY           SKY/WX    TMP DP  RH WIND       PRES   REMARKS
RICHMOND       CLOUDY    71  58  63 S12       29.94S
CHESTERFIELD*  FAIR      72  46  40 S8        29.96F
PETERSBURG*    CLEAR     68  57  67 SE3       29.95F
HANOVER        CLEAR     72  54  53 S8        29.94S
TAPPAHANNOCK*  CLEAR     72  49  44 S6        29.94S
QUINTON*       FAIR      72  58  62 S7        29.93F
CHARLOTTSVILLE PTCLDY    73  56  54 SW6       29.92R
GORDONSVILLE*  PTCLDY    70  57  64 CALM      29.92R
ORANGE*        PTCLDY    70  55  60 S5        29.93S
LOUISA*        CLEAR     75  59  57 S3        29.92R
BUMPASS*       FAIR      71  56  58 S7        29.92S
FARMVILLE*     CLEAR     72  58  62 S6        29.93S
CREWE*         FAIR      69  59  71 S3        29.95R
FORT PICKETT*  FAIR      68  53  57 S9        29.95S
CHASE CITY*    FAIR      69  56  63 CALM      29.95S
CLARKSVILLE*   FAIR      68  59  73 CALM      29.94F
SOUTH HILL*    CLEAR     69  59  71 S5        30.01F
LAWRENCEVILLE* FAIR      69  56  64 CALM      29.96F
EMPORIA*       CLEAR     68  55  64 SE5       29.98F
$$

VAZ088>098-280100-
SOUTHEAST VIRGINIA

CITY           SKY/WX    TMP DP  RH WIND       PRES   REMARKS
NORFOLK        CLOUDY    71  53  52 S5        29.97S
VIRGINIA BEACH CLOUDY    69  53  56 S8        29.97F
NORFOLK NAVAL  MOCLDY    70  53  54 S5        29.99S
WEST POINT*    CLEAR     70  55  57 S7        29.96S
SALUDA*        FAIR      69  58  68 CALM      29.95S
NEWPORT NEWS   CLEAR     68  55  63 S8        29.97S
LANGLEY AFB    PTCLDY    71  56  59 S7        29.97S
FORT EUSTIS    CLEAR     69  56  62 S6        29.94F
WILLIAMSBURG*  CLEAR     72  57  60 CALM      29.97S
HR EXEC AP*    FAIR      63  52  67 CALM      29.96R
FRANKLIN*      CLEAR     69  55  59 S3        29.98S
US460-WAKEFLD  CLEAR     69  57  65 S3        29.97S
$$

VAZ020-022-025-037-045-280100-
WEST CENTRAL AND SOUTHWEST VIRGINIA

CITY           SKY/WX    TMP DP  RH WIND       PRES   REMARKS
STAUNTON*      CLOUDY    62  55  76 SE3       29.96S
WAYNESBORO*    CLOUDY    61  60  96 SW8       29.96S
HOT SPRINGS VA CLOUDY    59  45  58 CALM      30.03S
LYNCHBURG      PTCLDY    67  56  67 S7        29.95S
DANVILLE       CLOUDY    67  59  75 CALM      29.95S
SOUTH BOSTON*  FAIR      70  56  59 CALM      29.94F
MARTINSVILLE   CLOUDY    64  56  74 CALM      29.98R
ROANOKE        PTCLDY    70  54  56 S7        29.95R
BLACKSBURG     CLOUDY    67  56  67 S3        30.00S
DUBLIN*        CLOUDY    67  55  66 S7        29.99R
MARION*        CLOUDY    67  54  61 S3        30.01R
HILLSVILLE*    CLOUDY    59  56  88 SE6       29.99S
RICHLANDS*     FAIR      66  46  48 S6        29.97R
WISE*          CLOUDY    66  50  55 S8        29.97R
ABINGDON*      CLEAR     69  49  48 CALM      29.95S
$$

MDZ021>025-VAZ099-100-280100-
SOUTHERN MARYLAND AND THE DELMARVA PENINSULA

CITY           SKY/WX    TMP DP  RH WIND       PRES   REMARKS
PATUXENT RIVER CLOUDY    55  52  89 S3        29.93F
BAY BRIDGE APT CLOUDY    55  50  82 CALM      29.93R
LEONARDTOWN    PTCLDY    64  54  68 CALM      29.94S
DOVER          PTCLDY    56  56 100 E3        29.93F
GEORGETOWN     CLEAR     65  56  72 SE8       29.96S
EASTON         MOCLDY    68  55  64 SE7       29.96F
CAMBRIDGE      CLEAR     64  55  72 S8        29.94F
SALISBURY      CLEAR     63  55  75 SE8       29.96S
OCEAN CITY     CLEAR     57  50  77 SW9       29.99S
WALLOPS ISLAND CLEAR     55  51  86 S15       29.99S
ACCOMACK*      CLEAR     61  51  68 S9        29.97F
$$

NCZ012>017-030>032-280100-
NORTH CENTRAL AND EASTERN NORTH CAROLINA

CITY           SKY/WX    TMP DP  RH WIND       PRES   REMARKS
ROANOKE RAPIDS FAIR      70  55  60 S5        29.97F
RALEIGH        MOCLDY    73  57  57 S6        29.96F
ELIZABETH CITY CLEAR     68  55  63 S8        30.01R
AHOSKIE*         N/A     65  56  72 S3        29.99S
EDENTON*       CLEAR     69  55  62 S9        30.01S
CURRITUCK*     CLEAR     69  55  59 S6        30.01S
KILL DEVIL HLS NOT AVBL
MANTEO         CLEAR     63  56  78 S8        30.03S
CAPE HATTERAS  CLEAR     69  58  67 SW12G17   30.05S
TARBORO*       NOT AVBL
GOLDSBORO      CLEAR     72  56  57 S5        29.98S
WASHINGTON     CLEAR     70  54  57 S7        30.01S
GREENVILLE     CLEAR     72  55  56 S10       30.02R
NEW BERN       CLEAR     68  54  60 S10       30.04S
WILMINGTON     CLEAR     67  56  67 S7        30.04S
$$

VAZ048-280100-
ELSEWHERE

CITY           SKY/WX    TMP DP  RH WIND       PRES   REMARKS
HARRISBURG PA  MOCLDY    54  51  90 CALM      29.94R
BALTIMORE      MOCLDY    61  54  77 N3        29.93S
ANNAPOLIS      CLOUDY    59  54  83 CALM      29.93S
ANDREWS AFB    PTCLDY    64  55  72 E6        29.92R
PHILADELPHIA   PTCLDY    54  50  86 E5        29.96F
HENDERSON NC   CLEAR     68  55  63 S3        29.96S
GREENSBORO     CLOUDY    70  58  65 S6        29.96R
ROCKY MOUNT    CLEAR     69  57  65 S5        29.98S
$$

VAZ100-280100-
MARINE

STATION/POSITION TIME  TEMP    WIND        PRES    WAVE   SWELL
                       AIR SEA DIR/SP/G            HT/PER HT/PER
                 (UTC) (F)     (DEG/KT/KT) (MB)    (FT/S) (FT/S)
CAPE MAY NJ      2348   56 47  160/ 11/ 13 1014.2F
LEWES DE         2348   65 45  190/  4/  9 1014.5S
OCEAN-CITY-INLET 2348   49 46  200/  9/ 11 1015.9F
WACHAPREAGUE VA  2348   58 56  220/  5/  7 1015.0F
THOMAS POINT MD  0000   58 46  350/  3/  3   N/A
GOOSES REEF MD   2350   51     200/  2/  4 1013.9F
COVE POINT MD    2348   54     180/ 11/ 12 1014.0F
SOLOMONS ISLAND  2348   55 48  100/  5/  5   N/A
BISHOPS HEAD MD  2348   54 56  140/  9/ 10 1014.4F
PINEY POINT MD   2348          170/  9/  9   N/A
POTOMAC MD       2350   56     170/  8/ 10 1012.9F
CAMBRIDGE MD     2348   66 46  160/  4/  7 1012.9F
LEWISETTA VA     2348   71 54  180/  8/  9 1013.2F
RAPPAHANNOCK LGT 2348          140/ 14/ 14 1015.2F
STINGRAY PT      2350   55     180/ 12/ 14 1014.5F
YORK RVR RNG VA  2348   56     180/ 11/ 12 1014.1S
YORKTOWN VA      2348   72 51  200/  4/  7 1014.3S
JAMESTOWN VA     2350   66     160/  2/  4   N/A
DOMINION TERM VA 2348   63     210/  8/  8 1015.0S
KIPTOPEKE VA     2348      52  170/ 13/ 14   N/A
CHES BAY BRIDGE  2348   68 49  140/  7/  8 1014.9F
CAPE HENRY VA    2348   69     170/  6/  8   N/A
WILLOUBY STN VA  2348   72     210/  7/  8 1015.9S
S CRANEY ISL VA  2348   70     210/  5/  6 1014.7F
CAPE HENRY BUOY  2342      50                N/A     3/ 8   2/18
CAPE CHARLES BUO 2351      49                N/A     3/ 8   2/17
OFFSHORE WE BUOY 2351      51                N/A     4/ 8   2/18
64NM E OF VA BCH 2350   55 50  170/  8/  8 1016.5F   3/10   3/10
DUCK PIER NC     2348   67 49  180/ 15/ 19 1015.6F
44100 DUCK FRF   2335      52                N/A     3/18   2/18
44056 DUCK FRF   2330      55                N/A     3/18   2/18
OREGON INLET NC  2348          180/  8/ 10 1016.9S
HATTERAS NC      2348   68 62  190/  3/  8 1017.3R
DIAMOND SHLS NC  2350   71 76  200/ 14/ 16 1017.5R   4/ 9   3/ 9
CAPE LOOKOUT NC  2300   67     190/  7/  8 1017.5R
$$




USA.gov is the U.S. government's official web portal to all federal, state and local government web resources and services.